SCP
-0 -0 -0 -0 -0 0 -0 0 -0 0 0 0 0 0 0 0 0 0 0 0 0 -0 0 0 0 0 0 0 0 0 0 0
0 -0 -0 -0 -0 -0 -0 -0 -0 0 0 0 0 0 0 0 0 0 0 0 0 0 0 0 0 0 0 0 0 0 0 0
0 0 0 0 0 0 -0 -0 0 -0 -0 0 0 0 0 0 0 0 0 0 0 0 0 0 0 0 0 0 0 0 0 0
0 0 0 0 0 0 0 0 0 0 -0 -0 -0 -0 0 0 0 0 0 0 0 0 0 0 0 0 0 0 0 0 0 0
0 0 0 -0 0 0 0 0 0 0 0 0 -0 -0 0 0 0 0 0 0 0 0 0 0 0 0 0 0 0 0 0 0
0 0 0 0 0 -0 -0 -0 -0 0 0 -0 -0 -0 -0 0 0 0 0 0 0 0 0 -0 0 0 0 0 0 0 0 0
0 0 -0 -0 -0 -0 -0 -0 -0 -0 0 0 0 0 0 0 0 0 0 0 0 0 -0 -0 0 0 0 0 0 0 0 0
0 -0 -0 -0 -0 -0 -0 -0 -0 -0 0 0 0 0 0 0 0 0 0 0 0 0 0 0 0 0 0 0 0 0 0 0
0 0 -0 -0 0 -0 -0 -0 -0 -0 0 0 0 0 0 0 0 0 0 0 0 0 0 0 0 0 0 0 0 0 0 0
0 0 0 -0 -0 -0 -0 -0 -0 -0 0 0 0 0 0 0 0 0 0 0 0 0 0 0 0 0 0 0 0 0 0 0
0 0 0 0 0 -0 -0 -0 -0 -0 -0 0 0 0 0 0 0 0 -0 0 0 0 0 0 0 0 0 0 0 0 0 0
0 0 0 0 -0 -0 -0 -0 -0 -0 -0 -0 -0 -0 -0 0 0 0 0 0 0 0 0 0 0 0 0 0 0 0 0 0
-0 0 0 0 -0 -0 -0 -0 -0 -0 -0 -0 -0 -0 0 0 0 0 0 0 0 0 0 0 0 0 0 0 0 0 0 0
-0 -0 -0 -0 -0 0 0 0 0 -0 -0 -0 -0 -0 0 0 0 0 0 0 0 0 0 0 0 1 0 0 0 0 0 0
0 -0 0 0 0 0 0 0 0 0 -0 -0 -0 -0 0 0 0 0 0 0 0 1 1 0 0 0 0 0 0 0 0 0
0 0 0 0 0 0 0 0 1 0 0 0 0 0 0 0 0 1 1 0 1 1 0 0 0 0 0 0 0 0 0 0
-0 0 0 0 0 1 1 1 1 1 0 0 0 0 0 0 1 1 1 0 1 1 0 0 0 0 0 1 1 0 0 0
0 0 1 2 2 1 1 1 0 0 1 0 0 0 1 1 0 0 0 0 0 0 0 0 0 0 0 0 0 0 0 0
0 1 1 1 1 0 0 0 0 0 0 0 0 1 1 0 0 0 0 0 0 0 0 0 0 0 0 0 0 0 0 0
0 0 0 0 1 0 0 0 0 0 0 1 1 1 1 0 0 0 0 0 0 0 0 0 0 0 0 0 0 0 0 0
Wind_Speed_500mb
42 39 38 36 38 40 39 37 35 33 30 26 24 23 19 16 14 14 13 13 11 10 11 9 9 14 18 22 25 14 5 9
44 38 37 37 37 37 38 37 35 33 30 27 24 22 19 15 16 12 13 11 6 6 12 9 2 8 8 17 24 11 10 16
43 40 38 38 38 37 39 38 36 34 31 28 25 23 19 16 15 12 13 7 3 3 8 11 8 8 6 12 17 11 5 4
46 46 43 42 39 36 38 43 37 36 31 26 24 24 20 17 14 12 11 3 6 6 8 8 8 12 6 8 10 8 8 7
51 48 47 41 39 38 37 42 38 35 31 29 28 26 22 17 12 10 8 5 5 10 10 5 7 2 6 9 14 18 16 11
52 51 49 48 43 43 40 40 40 35 31 30 29 27 24 20 17 11 9 8 9 8 7 2 1 7 13 11 15 20 19 13
56 55 51 48 47 44 44 41 39 34 33 33 31 29 29 26 22 17 11 9 8 6 4 5 7 11 14 17 19 19 19 16
50 51 50 50 52 49 48 45 40 39 36 35 36 37 32 29 23 20 14 12 14 10 11 9 12 14 15 16 20 21 19 17
49 49 50 50 54 58 54 51 46 44 42 43 44 39 34 30 24 22 20 15 17 17 17 15 14 15 16 17 17 18 21 21
51 56 57 57 52 56 58 55 51 49 46 41 37 29 30 30 26 25 23 17 14 14 16 16 13 15 17 17 17 19 20 21
63 61 60 60 62 61 60 57 57 51 47 46 42 36 36 36 36 32 27 17 15 14 10 8 7 7 13 14 16 20 21 28
70 66 70 67 64 61 58 59 61 53 43 43 41 37 34 33 31 30 29 26 22 22 20 13 9 13 13 17 22 22 24 26
70 78 75 71 65 56 53 62 61 58 52 38 36 39 39 34 32 33 35 34 31 30 27 25 11 16 18 17 21 27 30 31
75 81 79 80 76 72 69 63 66 62 61 51 39 36 37 35 37 36 31 31 28 29 29 24 19 19 20 24 22 27 31 33
80 83 89 86 82 76 72 69 68 65 66 59 44 34 35 38 38 35 28 32 26 28 25 18 19 32 29 22 21 28 33 35
83 97 99 90 80 77 71 67 66 60 65 61 48 36 33 35 33 31 29 33 26 24 20 23 30 23 22 19 21 19 18 25
73 71 73 62 42 54 51 51 57 52 55 52 43 35 29 30 32 29 29 27 29 25 18 19 21 10 9 10 13 19 24 30
39 38 32 41 50 51 53 33 30 49 38 33 27 26 27 25 24 26 23 22 22 18 15 12 11 8 12 15 20 26 31 32
24 28 45 44 41 39 50 50 66 41 10 26 20 21 21 19 17 19 14 11 14 8 6 2 4 9 18 26 30 29 28 29
24 30 35 38 46 45 15 27 59 17 30 19 18 20 20 16 12 8 8 10 10 10 4 7 14 23 29 28 22 15 17 19
Wind_Direction_500mb
173 175 178 173 170 169 169 171 173 176 174 172 173 174 170 164 148 141 131 113 93 78 51 55 45 33 356 7 9 23 74 98
176 173 169 174 174 172 171 173 176 178 180 179 181 179 171 164 149 136 134 109 110 67 30 29 348 10 21 14 8 41 90 107
185 181 173 169 170 172 175 174 174 179 182 183 182 180 167 163 157 140 136 140 105 75 32 32 20 354 12 6 10 27 63 59
193 190 184 181 175 174 176 176 174 180 184 182 179 178 176 167 161 156 158 172 35 21 355 14 24 357 332 322 341 356 325 293
203 198 195 189 186 181 182 183 184 185 185 185 184 183 185 182 178 182 184 184 320 319 26 338 328 347 270 321 312 321 326 277
211 212 209 207 203 199 194 194 198 194 194 194 195 197 200 201 208 217 217 258 270 292 355 67 94 281 282 286 298 311 309 302
220 219 220 219 216 214 210 207 207 206 203 203 206 212 214 214 221 228 236 255 253 233 251 282 269 294 293 298 300 305 299 294
220 223 224 227 228 226 225 221 218 216 214 215 216 222 222 219 223 222 221 225 222 227 246 273 295 310 310 312 309 300 288 286
220 227 232 236 235 231 229 226 225 219 220 223 227 234 232 230 231 225 219 219 218 231 248 269 286 300 306 308 302 294 293 288
221 225 234 241 234 234 231 230 228 223 226 233 239 247 247 242 243 238 226 234 238 245 253 262 282 308 307 301 291 281 281 284
226 227 232 234 231 234 235 230 230 226 229 231 235 239 242 241 245 239 232 236 234 238 234 268 298 325 331 321 297 287 271 282
226 230 231 231 235 237 238 235 232 224 227 232 238 243 254 256 254 252 245 240 237 236 245 236 246 273 303 323 320 307 289 286
226 228 230 231 234 233 234 237 236 231 229 234 243 244 251 256 252 247 242 239 238 231 238 246 234 263 275 290 307 307 291 291
227 231 233 237 238 239 238 236 238 237 230 236 244 246 248 249 244 248 243 238 236 242 240 240 258 269 283 285 287 299 299 288
223 226 229 233 235 239 240 236 238 240 233 236 245 242 244 250 245 247 240 240 247 239 237 234 268 290 296 289 295 299 293 292
223 229 230 230 232 234 235 234 233 236 233 235 236 236 239 246 247 244 250 240 242 246 241 249 274 280 287 294 315 307 303 304
226 224 225 226 221 224 232 228 234 233 223 229 231 235 237 240 243 245 255 246 248 259 257 275 288 299 306 330 326 314 310 306
230 218 198 191 204 206 205 183 301 250 206 210 221 230 237 237 250 256 249 256 258 259 271 254 270 300 319 324 321 316 309 301
174 171 191 197 192 173 183 204 243 302 198 204 207 224 226 235 239 243 246 246 278 245 204 273 10 338 327 325 321 318 308 303
180 187 178 171 168 163 208 205 173 176 236 209 189 199 220 208 202 205 197 138 137 121 90 354 341 330 324 323 329 338 321 316
Wind_Speed_850mb
42 39 38 36 38 40 39 37 35 33 30 26 24 23 19 16 14 14 13 13 11 10 11 9 9 14 18 22 25 14 5 9
44 38 37 37 37 37 38 37 35 33 30 27 24 22 19 15 16 12 13 11 6 6 12 9 2 8 8 17 24 11 10 16
43 40 38 38 38 37 39 38 36 34 31 28 25 23 19 16 15 12 13 7 3 3 8 11 8 8 6 12 17 11 5 4
46 46 43 42 39 36 38 43 37 36 31 26 24 24 20 17 14 12 11 3 6 6 8 8 8 12 6 8 10 8 8 7
51 48 47 41 39 38 37 42 38 35 31 29 28 26 22 17 12 10 8 5 5 10 10 5 7 2 6 9 14 18 16 11
52 51 49 48 43 43 40 40 40 35 31 30 29 27 24 20 17 11 9 8 9 8 7 2 1 7 13 11 15 20 19 13
56 55 51 48 47 44 44 41 39 34 33 33 31 29 29 26 22 17 11 9 8 6 4 5 7 11 14 17 19 19 19 16
50 51 50 50 52 49 48 45 40 39 36 35 36 37 32 29 23 20 14 12 14 10 11 9 12 14 15 16 20 21 19 17
49 49 50 50 54 58 54 51 46 44 42 43 44 39 34 30 24 22 20 15 17 17 17 15 14 15 16 17 17 18 21 21
51 56 57 57 52 56 58 55 51 49 46 41 37 29 30 30 26 25 23 17 14 14 16 16 13 15 17 17 17 19 20 21
63 61 60 60 62 61 60 57 57 51 47 46 42 36 36 36 36 32 27 17 15 14 10 8 7 7 13 14 16 20 21 28
70 66 70 67 64 61 58 59 61 53 43 43 41 37 34 33 31 30 29 26 22 22 20 13 9 13 13 17 22 22 24 26
70 78 75 71 65 56 53 62 61 58 52 38 36 39 39 34 32 33 35 34 31 30 27 25 11 16 18 17 21 27 30 31
75 81 79 80 76 72 69 63 66 62 61 51 39 36 37 35 37 36 31 31 28 29 29 24 19 19 20 24 22 27 31 33
80 83 89 86 82 76 72 69 68 65 66 59 44 34 35 38 38 35 28 32 26 28 25 18 19 32 29 22 21 28 33 35
83 97 99 90 80 77 71 67 66 60 65 61 48 36 33 35 33 31 29 33 26 24 20 23 30 23 22 19 21 19 18 25
73 71 73 62 42 54 51 51 57 52 55 52 43 35 29 30 32 29 29 27 29 25 18 19 21 10 9 10 13 19 24 30
39 38 32 41 50 51 53 33 30 49 38 33 27 26 27 25 24 26 23 22 22 18 15 12 11 8 12 15 20 26 31 32
24 28 45 44 41 39 50 50 66 41 10 26 20 21 21 19 17 19 14 11 14 8 6 2 4 9 18 26 30 29 28 29
24 30 35 38 46 45 15 27 59 17 30 19 18 20 20 16 12 8 8 10 10 10 4 7 14 23 29 28 22 15 17 19
Wind_Direction_850mb
173 175 178 173 170 169 169 171 173 176 174 172 173 174 170 164 148 141 131 113 93 78 51 55 45 33 356 7 9 23 74 98
176 173 169 174 174 172 171 173 176 178 180 179 181 179 171 164 149 136 134 109 110 67 30 29 348 10 21 14 8 41 90 107
185 181 173 169 170 172 175 174 174 179 182 183 182 180 167 163 157 140 136 140 105 75 32 32 20 354 12 6 10 27 63 59
193 190 184 181 175 174 176 176 174 180 184 182 179 178 176 167 161 156 158 172 35 21 355 14 24 357 332 322 341 356 325 293
203 198 195 189 186 181 182 183 184 185 185 185 184 183 185 182 178 182 184 184 320 319 26 338 328 347 270 321 312 321 326 277
211 212 209 207 203 199 194 194 198 194 194 194 195 197 200 201 208 217 217 258 270 292 355 67 94 281 282 286 298 311 309 302
220 219 220 219 216 214 210 207 207 206 203 203 206 212 214 214 221 228 236 255 253 233 251 282 269 294 293 298 300 305 299 294
220 223 224 227 228 226 225 221 218 216 214 215 216 222 222 219 223 222 221 225 222 227 246 273 295 310 310 312 309 300 288 286
220 227 232 236 235 231 229 226 225 219 220 223 227 234 232 230 231 225 219 219 218 231 248 269 286 300 306 308 302 294 293 288
221 225 234 241 234 234 231 230 228 223 226 233 239 247 247 242 243 238 226 234 238 245 253 262 282 308 307 301 291 281 281 284
226 227 232 234 231 234 235 230 230 226 229 231 235 239 242 241 245 239 232 236 234 238 234 268 298 325 331 321 297 287 271 282
226 230 231 231 235 237 238 235 232 224 227 232 238 243 254 256 254 252 245 240 237 236 245 236 246 273 303 323 320 307 289 286
226 228 230 231 234 233 234 237 236 231 229 234 243 244 251 256 252 247 242 239 238 231 238 246 234 263 275 290 307 307 291 291
227 231 233 237 238 239 238 236 238 237 230 236 244 246 248 249 244 248 243 238 236 242 240 240 258 269 283 285 287 299 299 288
223 226 229 233 235 239 240 236 238 240 233 236 245 242 244 250 245 247 240 240 247 239 237 234 268 290 296 289 295 299 293 292
223 229 230 230 232 234 235 234 233 236 233 235 236 236 239 246 247 244 250 240 242 246 241 249 274 280 287 294 315 307 303 304
226 224 225 226 221 224 232 228 234 233 223 229 231 235 237 240 243 245 255 246 248 259 257 275 288 299 306 330 326 314 310 306
230 218 198 191 204 206 205 183 301 250 206 210 221 230 237 237 250 256 249 256 258 259 271 254 270 300 319 324 321 316 309 301
174 171 191 197 192 173 183 204 243 302 198 204 207 224 226 235 239 243 246 246 278 245 204 273 10 338 327 325 321 318 308 303
180 187 178 171 168 163 208 205 173 176 236 209 189 199 220 208 202 205 197 138 137 121 90 354 341 330 324 323 329 338 321 316